一网星座-0338星 (ONEWEB-0338 )

导读 | 豆包AI

ONEWEB-0338是英国一网公司OneWeb低轨互联网星座的一颗卫星,于北京时间2021年9月14日发射,为一网第11批组网卫星之一。它运行在近地轨道,依托OneWeb星座的全球关口站网络,使用Ku波段提供用户通信服务,旨在为全球网络基础设施薄弱区域提供高速互联网接入,助力偏远地区、海运航空等场景的宽带连接,是OneWeb完成一期648颗星座部署的重要组成卫星。

基本信息
目录编号:
49204
目录名称:
ONEWEB-0338
国际标识:
2021-083U
轨道中心:
EARTH
卫星名称:
一网星座-0338星
卫星全名:
一网星座-0338星 (ONEWEB-0338 )
卫星状态:
在轨 (已飞行1642 天)
发射日期:
2021-09-14 UTC
国别 :
英国 (GB)
星等 :
--
轨道信息
数据来源 国际轨道数据 AOE轨道数据
星历时间 2026-03-14T05:23:02+0800
17小时前
查看轨道信息
2026-03-12T03:00:00+0800
2天前
查看轨道信息
半长轴 7559.918km 7559.911km
偏心率 0.0001805 0.0002417
轨道倾角 87.916° 87.916°
近地点辐角 95.743° 88.992°
升交点赤经 293.486° 293.904°
平近点角 264.391° 15.055°
近地点 1180.416km 1179.946km
远地点 1183.146km 1183.602km
周期 109.027分钟 109.027分钟
每日圈数 13.207699 13.207719
详细信息
平衡模式:
三轴稳定
覆盖范围:
全球
运营商:
一网卫星公司
运营商所在国:
英国
制造商(研发单位):
一网卫星公司
制造商所在国:
英国
使用方式:
暂无
卫星简介
OneWeb卫星网络由648颗重约125公斤的微型卫星组成,运行在1200公里的轨道上。 每颗卫星都能够提供至少每秒8千兆位的吞吐量,以使用其高吞吐量的Ku频段有效载荷为家庭和移动平台提供互联网接入。该卫星仍在工作。
2D轨道图
3D轨道图
轨道高度分析图
轨道倾角分析图
轨道综合分析图
查看轨道综合分析图